{"data":{"norad_id":65480,"epoch":"2026-09-20T04:06:57.682080Z","epoch_age_seconds":140309,"freshness":"FRESH","line1":"1 65480U 25195Y   26263.17150095  .00025933  00000+0  77624-3 0  9992","line2":"2 65480  53.1587  70.9826 0001624  76.6914 283.4269 15.34390549 59801","mean_motion":15.34390549,"eccentricity":0.0001624,"inclination_deg":53.1587,"raan_deg":70.9826,"arg_perigee_deg":76.6914,"mean_anomaly_deg":283.4269,"bstar":0.00077624,"rev_number":5980,"period_min":93.848336131794,"perigee_km":461.62037369809,"apogee_km":463.84228773191,"semimajor_km":6840.868330715,"source":"CELESTRAK","updated_at":"2026-09-21T09:00:35.639479Z"}}